"TOA5","AWS1","CR1000","7964","CR1000.Std.14","CPU:AWS1_114.CR1","64363","TBL110"
"TIMESTAMP","RECORD","Wind_spd_WVc(1)","Wind_spd_WVc(2)","Air_Temp_Avg","Humidity_Avg","SW_upper_Wm2_Avg","Rain_Tot","Press_Avg","Issui_Tot","Depth_cm","SR50A_Raw","Quality","Ground_Temp_Avg(1)","Ground_Temp_Avg(2)","SW_lower_Wm2_Avg","Albedo_Avg","SWC_per(1)","SWC_per(2)","Period(1)","Period(2)"
"TS","RN","","","","","","","","","","","","","","","","","","",""
"","","WVc","WVc","Avg","Avg","Avg","Tot","Avg","Tot","Smp","Smp","Smp","Avg","Avg","Avg","Avg","Smp","Smp","Smp","Smp"
"2016-05-28 00:00:00",237373,0.095,250.6,11.75,94.8,0,0,863.409,0,-1.179,3.122,234,16.25,15.58,1.322555,0,46.35,52.83,32.38,33.99
"2016-05-28 00:10:00",237374,0.001,302.7,12.3,88,0,0,863.3626,0,-34.64,3.449,325,16.27,15.58,1.371816,0,46.35,52.88,32.38,34
"2016-05-28 00:20:00",237375,0.116,331.8,12.56,82.9,0,0,863.3016,0,-35.97,3.461,294,16.23,15.58,1.712874,0,46.35,52.88,32.38,34
"2016-05-28 00:30:00",237376,0.02,159.3,12.12,89.6,0,0,863.0972,0,-32.96,3.436,375,16.19,15.58,0.3713754,0,46.35,52.88,32.38,34
"2016-05-28 00:40:00",237377,0.132,318.5,12,88.2,0,0,863.1077,0,-31.46,3.421,328,16.18,15.58,0.466114,0,46.35,52.88,32.38,34
"2016-05-28 00:50:00",237378,0.465,306.5,11.93,87.6,0,0,863.0951,0,-30.8,3.413,304,16.07,15.58,0.299374,0,46.4,52.88,32.39,34
"2016-05-28 01:00:00",237379,0.063,266,12.01,89.2,0,0,863.1141,0,6.922,3.046,258,16.1,15.58,0.208425,0,46.4,52.88,32.39,34
"2016-05-28 01:10:00",237380,0.115,120.8,11.51,96.6,0,0,863.0088,0,7.285,3.045,254,16.07,15.58,0,0,46.35,52.88,32.38,34
"2016-05-28 01:20:00",237381,0.217,122.9,11.24,100,0,0,862.8951,0,7.081,3.047,256,16,15.58,0,0,46.35,52.88,32.38,34
"2016-05-28 01:30:00",237382,0.006,124.4,11.22,99.9,0,0,862.855,0,6.673,3.051,261,16.01,15.58,0,0,46.4,52.94,32.39,34.02
"2016-05-28 01:40:00",237383,0.035,170.8,11.14,99.4,0,0,862.6802,0,6.808,3.052,252,15.91,15.58,0,0,46.35,52.88,32.38,34
"2016-05-28 01:50:00",237384,0.171,192.5,10.85,99.8,0,0,862.8466,0,6.736,3.052,278,15.93,15.59,0.1023177,0,46.4,52.88,32.39,34
"2016-05-28 02:00:00",237385,0.109,194.9,10.69,100,0,0,862.6718,0,-31.06,3.425,212,15.93,15.58,0.003789545,0,46.35,52.88,32.38,34
"2016-05-28 02:10:00",237386,0.072,200.4,10.72,100,0,0,862.8024,0,-32.37,3.436,246,15.84,15.56,0.2235831,0,46.4,52.88,32.39,34
"2016-05-28 02:20:00",237387,0.045,134.3,10.98,96.1,0,0,862.8445,0,-32.01,3.434,250,15.8,15.52,0.5267467,0,46.35,52.88,32.38,34
"2016-05-28 02:30:00",237388,0.299,316.1,10.99,99.3,0,0,862.9224,0,-2.458,3.14,200,15.84,15.49,0.5381153,0,46.4,52.88,32.39,34
"2016-05-28 02:40:00",237389,0.32,337.4,11.46,99.7,0.2436778,0,863.1056,0,-2.809,3.142,199,15.8,15.49,0.8791743,1.02,46.4,52.88,32.39,34
"2016-05-28 02:50:00",237390,0.207,89.9,11.76,100,0.01965144,0,863.1056,0,-3.295,3.147,198,15.71,15.49,0.765488,0.129,46.4,52.88,32.39,34
"2016-05-28 03:00:00",237391,0.097,141.2,11.18,100,0,0,862.9582,0,-3.131,3.149,199,15.74,15.49,0.007579089,0,46.4,52.94,32.39,34.02
"2016-05-28 03:10:00",237392,0.395,104.4,11.21,100,0,0,862.756,0,-2.527,3.139,200,15.75,15.49,0.3865336,0,46.4,52.94,32.39,34.02
"2016-05-28 03:20:00",237393,1.141,50.63,11.69,95.5,0,0,862.8255,0,-1.914,3.133,204,15.62,15.49,0.5722212,0,46.4,52.94,32.39,34.02
"2016-05-28 03:30:00",237394,0.673,79.39,11.73,91.7,0,0,862.8572,0,-2.727,3.14,192,15.65,15.49,0.4206394,0,46.4,52.94,32.39,34.02
"2016-05-28 03:40:00",237395,0.161,344.4,12.07,87.7,0,0,862.8572,0,-2.64,3.137,194,15.67,15.49,0.4547453,0,46.4,52.94,32.39,34.02
"2016-05-28 03:50:00",237396,0.155,196,12.19,88.5,0,0,862.8572,0,-3.008,3.143,199,15.66,15.49,0.2842158,0,46.35,52.94,32.38,34.02
"2016-05-28 04:00:00",237397,0,0,11.59,99.8,0,0,862.8613,0,-2.653,3.14,201,15.54,15.45,0,0,46.4,52.94,32.39,34.02
"2016-05-28 04:10:00",237398,0,0,11.6,97.6,0,0,862.9266,0,-2.152,3.137,207,15.56,15.42,0,0,46.4,52.94,32.39,34.02
"2016-05-28 04:20:00",237399,0.013,154.1,11.24,100,0,0,863.0867,0,-2.181,3.138,201,15.58,15.38,0,0,46.4,52.94,32.39,34.02
"2016-05-28 04:30:00",237400,0.108,155.2,11.16,100,0,0,863.0151,0,-2.438,3.141,200,15.58,15.4,0,0,46.4,52.94,32.39,34.02
"2016-05-28 04:40:00",237401,0.108,155.2,11.36,100,0.3262138,0,862.8719,0,-2.356,3.139,201,15.55,15.41,0.3448485,0.699,46.4,52.94,32.39,34.02
"2016-05-28 04:50:00",237402,0.097,168.5,11.45,99.2,2.424987,0,862.8487,0,-2.337,3.135,201,15.53,15.41,0.856437,0.318,46.4,53,32.39,34.03
"2016-05-28 05:00:00",237403,0.001,175.2,12.19,93.9,5.034698,0,862.8993,0,-2.401,3.133,200,15.48,15.41,1.697716,0.338,46.4,52.94,32.39,34.02
"2016-05-28 05:10:00",237404,0.118,295.6,12.71,90.7,11.84981,0,862.8761,0,-2.239,3.13,201,15.46,15.41,2.936897,0.254,46.4,53,32.39,34.03
"2016-05-28 05:20:00",237405,0.01,11.14,12.61,96.5,16.19671,0,863.0782,0,-2.533,3.135,200,15.47,15.41,3.039215,0.188,46.4,53,32.39,34.03
"2016-05-28 05:30:00",237406,0.013,220.2,12.2,99.8,20.66152,0,863.1098,0,-2.152,3.132,201,15.44,15.41,3.145322,0.152,46.4,53,32.39,34.03
"2016-05-28 05:40:00",237407,0.098,197.4,12.02,100,18.76712,0,863.0635,0,-2.036,3.133,202,15.39,15.39,2.66405,0.142,46.4,53,32.39,34.03
"2016-05-28 05:50:00",237408,0.279,194,12.07,100,22.96074,0,862.8867,0,-2.051,3.131,202,15.35,15.37,3.569751,0.154,46.4,53,32.39,34.03
"2016-05-28 06:00:00",237409,0.265,138.8,12.24,100,37.77006,0,862.8613,0,-1.924,3.13,211,15.36,15.35,5.703264,0.151,46.4,53,32.39,34.03
"2016-05-28 06:10:00",237410,0.267,77.98,12.44,99.1,40.50947,0,862.8214,0,-1.962,3.128,202,15.36,15.31,6.15801,0.152,46.4,53,32.39,34.03
"2016-05-28 06:20:00",237411,0.088,132,12.79,94.5,57.89313,0,862.756,0,-1.904,3.126,203,15.38,15.29,8.765216,0.152,46.4,53,32.39,34.03
"2016-05-28 06:30:00",237412,0.171,302.2,13.07,90.9,50.05613,0,862.7877,0,-1.585,3.121,206,15.39,15.28,7.503298,0.15,46.45,53,32.4,34.03
"2016-05-28 06:40:00",237413,0.022,246.2,13.31,91.7,63.06932,0,862.6738,0,-1.044,3.115,209,15.4,15.28,9.31849,0.148,46.4,53,32.39,34.03
"2016-05-28 06:50:00",237414,0.087,0.916,13.24,92.8,62.19286,0,862.8403,0,-0.718,3.113,226,15.38,15.28,8.878903,0.143,46.45,53,32.4,34.03
"2016-05-28 07:00:00",237415,0.038,338.2,13.22,93,89.52014,0,862.8572,0,-0.712,3.112,227,15.35,15.28,12.67224,0.142,46.45,53,32.4,34.03
"2016-05-28 07:10:00",237416,0.031,127.8,13.27,94.7,103.7006,0,862.8552,0,0.053,3.105,240,15.32,15.28,14.47606,0.14,46.45,53,32.4,34.03
"2016-05-28 07:20:00",237417,0.196,23.39,13.29,96.3,139.0339,0,862.9161,0,-0.796,3.114,220,15.32,15.29,20.00879,0.144,46.45,53,32.4,34.03
"2016-05-28 07:30:00",237418,0.099,357.4,13.39,94.6,226.5749,0,862.727,0,-0.807,3.112,212,15.31,15.28,33.5523,0.148,46.45,53,32.4,34.03
"2016-05-28 07:40:00",237419,0.115,153.5,13.8,98,193.6533,0,862.6198,0,-1.323,3.115,205,15.27,15.26,27.38216,0.141,46.4,53,32.39,34.03
"2016-05-28 07:50:00",237420,0.357,29.86,13.71,96.4,157.9697,0,862.4433,0,-1.161,3.114,212,15.27,15.23,21.89376,0.138,46.45,53,32.4,34.03
"2016-05-28 08:00:00",237421,0.155,12.91,13.59,95.7,135.2879,0,862.6732,0,-1.113,3.116,212,15.23,15.16,17.93653,0.133,46.4,53,32.39,34.03
"2016-05-28 08:10:00",237422,0.134,342,13.4,99.8,137.9071,0,862.5261,0,-1.049,3.115,224,15.22,15.08,18.85969,0.136,46.4,53,32.39,34.03
"2016-05-28 08:20:00",237423,0.23,329.8,13.15,100,93.03756,0,862.5214,0,-0.811,3.116,219,15.2,15.08,12.09641,0.129,46.45,53,32.4,34.03
"2016-05-28 08:30:00",237424,0.185,20.69,12.76,100,111.4263,0,862.5718,0,-1.27,3.12,205,15.21,15.11,15.23708,0.137,46.4,53,32.39,34.03
"2016-05-28 08:40:00",237425,0.221,338.6,12.75,100,125.256,0,862.7722,0,-1.019,3.118,213,15.24,15.13,17.63938,0.141,46.4,53.05,32.39,34.04
"2016-05-28 08:50:00",237426,0.316,320.7,12.82,100,154.3675,0,862.7699,0,-0.706,3.114,234,15.28,15.16,22.48867,0.146,46.4,53.05,32.39,34.04
"2016-05-28 09:00:00",237427,0.347,4.618,12.9,100,141.4298,0,862.774,0,-1.268,3.12,227,15.28,15.15,20.50687,0.145,46.45,53.05,32.4,34.04
"2016-05-28 09:10:00",237428,0.234,15.04,12.92,100,144.4921,0,862.7701,0,-0.757,3.114,231,15.28,15.13,21.13976,0.146,46.4,53.05,32.39,34.04
"2016-05-28 09:20:00",237429,0.334,33,12.95,100,127.7113,0,862.5805,0,-0.656,3.114,221,15.28,15.09,18.51067,0.145,46.4,53.05,32.39,34.04
"2016-05-28 09:30:00",237430,0.168,82.2,13,100,105.2879,0,862.5258,0,-1.684,3.124,209,15.27,15.07,15.2299,0.144,46.4,53.05,32.39,34.04
"2016-05-28 09:40:00",237431,0.026,348.1,13.21,100,83.45106,0,862.5404,0,-1.189,3.117,224,15.28,15.08,11.57802,0.139,46.4,53.05,32.39,34.04
"2016-05-28 09:50:00",237432,0.076,58.72,13.14,100,88.14584,0,862.5188,0,-1.362,3.119,214,15.3,15.07,12.09317,0.137,46.45,53.05,32.4,34.04
"2016-05-28 10:00:00",237433,0.041,107.3,13.08,100,87.26357,0,862.5236,0,0.346,3.103,254,15.29,15.1,12.71041,0.143,46.45,53.05,32.4,34.04
"2016-05-28 10:10:00",237434,0.44,3.35,12.94,100,210.2119,0,862.5179,0,-0.807,3.114,222,15.29,15.1,33.14613,0.158,46.4,53.05,32.39,34.04
"2016-05-28 10:20:00",237435,0.325,356.9,13.45,99.8,228.3508,0,862.473,0,0.281,3.101,285,15.35,15.09,36.00354,0.157,46.4,53.05,32.39,34.04
"2016-05-28 10:30:00",237436,0.238,6.583,13.98,96.3,367.5402,0,862.3668,0,-0.03,3.102,307,15.36,15.06,59.17742,0.161,46.4,53.05,32.39,34.04
"2016-05-28 10:40:00",237437,0.576,4.992,13.8,97.6,286.376,0,862.2725,0,318,0,0,15.37,15.05,45.00993,0.157,46.4,53.05,32.39,34.04
"2016-05-28 10:50:00",237438,0.226,311.8,13.99,97,231.8698,0,862.2623,0,-2.657,3.127,228,15.4,15.04,36.07599,0.155,46.4,53.05,32.39,34.04
"2016-05-28 11:00:00",237439,0.606,7.481,14.04,96.1,371.4007,0,862.2533,0,2.478,3.076,383,15.36,15.03,59.91899,0.161,46.45,53,32.4,34.03
"2016-05-28 11:10:00",237440,0.256,255.1,14.63,91.8,433.6068,0,862.1985,0,1.631,3.081,370,15.38,15.04,69.21899,0.16,46.4,53.05,32.39,34.04
"2016-05-28 11:20:00",237441,0.346,15.21,15.28,85.9,447.067,0,862.009,0,-3.437,3.128,250,15.37,15.03,69.89705,0.156,46.45,53.05,32.4,34.04
"2016-05-28 11:30:00",237442,0.63,35.42,14.97,86.4,277.2933,0,862.009,0,318,0,0,15.37,15.03,41.86397,0.151,46.4,53.11,32.39,34.06
"2016-05-28 11:40:00",237443,0.158,330.4,14.8,91.5,198.5061,0,861.9227,0,1.994,3.077,384,15.43,14.99,28.74526,0.145,46.4,53.05,32.39,34.04
"2016-05-28 11:50:00",237444,0.199,332.6,14.74,93.2,213.4832,0,861.7689,0,1.568,3.083,523,15.45,14.97,31.63569,0.148,46.4,53.05,32.39,34.04
"2016-05-28 12:00:00",237445,0.188,270.9,14.71,95.6,199.9794,0,861.6426,0,-4.427,3.14,199,15.45,14.94,30.60908,0.153,46.4,53.05,32.39,34.04
"2016-05-28 12:10:00",237446,0.354,15.44,14.62,93.4,212.5167,0,861.7268,0,3.676,3.062,341,15.5,14.92,32.41986,0.152,46.4,53.05,32.39,34.04
"2016-05-28 12:20:00",237447,0.244,297.4,14.53,92,146.9387,0,861.7542,0,-33.01,3.422,282,15.54,14.92,21.4756,0.146,46.4,53.05,32.39,34.04
"2016-05-28 12:30:00",237448,0.16,271.4,14.35,93.6,182.6135,0,861.67,0,-33.02,3.42,222,15.54,14.92,28.67707,0.155,46.4,53.05,32.39,34.04
"2016-05-28 12:40:00",237449,0.234,247.2,14.63,89.4,184.2872,0,861.7205,0,-3.968,3.136,211,15.6,14.92,27.99139,0.151,46.4,53.05,32.39,34.04
"2016-05-28 12:50:00",237450,0.086,265.3,14.65,89.8,140.2477,0,861.7985,0,-33.02,3.42,284,15.62,14.92,20.68764,0.147,46.4,53.05,32.39,34.04
"2016-05-28 13:00:00",237451,0.13,144.2,14.73,89.2,157.8101,0,861.8427,0,-32.38,3.413,295,15.65,14.93,24.05919,0.152,46.35,53.11,32.38,34.06
"2016-05-28 13:10:00",237452,0.062,347.3,14.8,87.8,199.1937,0,861.7563,0,-31.59,3.403,262,15.66,14.93,30.64696,0.154,46.4,53.05,32.39,34.04
"2016-05-28 13:20:00",237453,0.077,353,14.97,87.2,205.3935,0,861.7563,0,-31.18,3.401,2
"2016-05-28 13:20:00",237453,0.077,353,14.97,87.2,205.3935,0,861.7563,0,-31.18,3.401,289,15.7,14.92,29.94234,0.146,46.35,53.05,32.38,34.04
"2016-05-28 13:30:00",237454,0.052,208,15.04,85.7,295.4568,0,861.7563,0,6.783,3.029,409,15.69,14.92,44.78851,0.152,46.4,53.05,32.39,34.04
"2016-05-28 13:40:00",237455,0.145,134.7,15.21,81.9,324.1617,0,861.7332,0,7.661,3.02,398,15.71,14.92,49.05029,0.151,46.4,53.11,32.39,34.06
"2016-05-28 13:50:00",237456,0.401,127.4,15.31,79.88,340.3882,0,861.5416,0,7.54,3.023,300,15.77,14.92,51.62251,0.152,46.35,53.05,32.38,34.04
"2016-05-28 14:00:00",237457,0.64,147.7,14.9,84.4,253.7589,0,861.4889,0,7.372,3.026,288,15.76,14.92,36.62482,0.144,46.35,53.11,32.38,34.06
"2016-05-28 14:10:00",237458,0.725,127.5,14.67,84.3,243.0957,0,861.4699,0,-32.51,3.415,208,15.77,14.92,37.30671,0.153,46.35,53.05,32.38,34.04
"2016-05-28 14:20:00",237459,0.603,132.4,14.67,83.3,299.7118,0,861.2994,0,7.894,3.02,380,15.82,14.91,47.98957,0.16,46.35,53.05,32.38,34.04
"2016-05-28 14:30:00",237460,0.551,138.8,14.82,80.7,335.4024,0,861.2531,0,7.736,3.022,342,15.87,14.92,53.70605,0.16,46.35,53.05,32.38,34.04
"2016-05-28 14:40:00",237461,0.358,144.7,14.98,79.63,330.9706,0,861.1036,0,7.642,3.022,365,15.83,14.92,52.562,0.159,46.35,53.05,32.38,34.04
"2016-05-28 14:50:00",237462,0.159,111.9,15.31,80.9,230.9749,0,861.0047,0,7.568,3.02,296,15.88,14.92,34.71554,0.15,46.29,53.05,32.36,34.04
"2016-05-28 15:00:00",237463,0.349,129.5,15.09,81.4,219.4002,0,860.9984,0,-32.51,3.413,333,15.95,14.92,32.77974,0.149,46.35,53.05,32.38,34.04
"2016-05-28 15:10:00",237464,0.125,64.76,15.38,80.6,264.1234,0,860.9984,0,9.12,3.004,288,15.95,14.92,40.60627,0.154,46.29,53.05,32.36,34.04
"2016-05-28 15:20:00",237465,0.341,13,15.49,79.51,277.474,0,860.9584,0,9.14,3.007,280,16,14.92,42.15946,0.152,46.35,53.05,32.38,34.04
"2016-05-28 15:30:00",237466,0.275,314.1,14.94,80.5,239.815,0,860.8257,0,9.16,3.007,267,16.04,14.92,36.71953,0.153,46.29,53.05,32.36,34.04
"2016-05-28 15:40:00",237467,0.309,98.5,15.28,81.9,270.728,0,860.6973,0,9.21,3.004,294,16.04,14.92,43.55353,0.161,46.29,53.05,32.36,34.04
"2016-05-28 15:50:00",237468,0.288,350,15.55,80.8,217.8287,0,860.8447,0,11.21,2.985,288,16.06,14.91,33.32904,0.152,46.29,53.05,32.36,34.04
"2016-05-28 16:00:00",237469,0.125,330.1,15.31,82.1,165.2633,0,860.7457,0,9.4,3.004,285,16.05,14.92,24.15389,0.146,46.29,53.05,32.36,34.04
"2016-05-28 16:10:00",237470,0.069,174.8,15.27,85.8,205.0989,0,860.752,0,10.66,2.991,310,16.06,14.92,31.64706,0.154,46.29,53.05,32.36,34.04
"2016-05-28 16:20:00",237471,0.224,109.6,15.09,82.1,214.823,0,860.7457,0,11.34,2.986,281,16.12,14.92,32.24181,0.15,46.29,53.05,32.36,34.04
"2016-05-28 16:30:00",237472,0.076,165.3,15.16,82.7,201.9989,0,860.7457,0,11.57,2.982,296,16.1,14.91,30.56362,0.151,46.29,53.05,32.36,34.04
"2016-05-28 16:40:00",237473,0.209,352.1,15.34,81.6,186.4403,0,860.7457,0,15.68,2.942,414,16.14,14.9,28.08231,0.15,46.29,53,32.36,34.03
"2016-05-28 16:50:00",237474,0.255,303.2,15.16,82.2,163.3184,0,860.8405,0,-27.2,3.361,227,16.14,14.91,24.72592,0.151,46.29,53.05,32.36,34.04
"2016-05-28 17:00:00",237475,0.139,213.7,15.04,84.2,156.5882,0,860.9794,0,8.27,3.015,345,16.2,14.92,23.44928,0.15,46.29,53,32.36,34.03
"2016-05-28 17:10:00",237476,0.105,189.5,15.02,86.8,130.6611,0,860.9689,0,8.67,3.012,273,16.22,14.92,18.5738,0.141,46.29,53.05,32.36,34.04
"2016-05-28 17:20:00",237477,0.361,132.6,14.65,87.1,157.1343,0,860.9984,0,10.19,2.999,297,16.23,14.93,24.16147,0.151,46.29,53,32.36,34.03
"2016-05-28 17:30:00",237478,0.65,141.3,14.28,86.9,90.93546,0,860.7878,0,8.65,3.017,283,16.26,14.94,11.86481,0.127,46.29,53.05,32.36,34.04
"2016-05-28 17:40:00",237479,0.32,134.8,13.93,90.4,67.44848,0,860.7457,0,8.64,3.018,269,16.28,14.93,8.925158,0.132,46.29,53.05,32.36,34.04
"2016-05-28 17:50:00",237480,0.012,130.3,14.01,92,86.72989,0,860.8699,0,8.67,3.016,284,16.29,14.93,13.51685,0.156,46.29,53.05,32.36,34.04
"2016-05-28 18:00:00",237481,0.065,170.4,14.26,90.1,64.87449,0,861.0868,0,9.16,3.01,299,16.28,14.95,10.27811,0.159,46.24,53.05,32.35,34.04
"2016-05-28 18:10:00",237482,0.078,199.7,14.44,87.8,81.74406,0,861.0678,0,7.753,3.023,432,16.3,14.99,14.38958,0.176,46.24,53.05,32.35,34.04
"2016-05-28 18:20:00",237483,0,52.93,14.54,84.2,66.19641,0,861.1755,0,7.777,3.023,481,16.31,15.03,10.83972,0.162,46.24,53.05,32.35,34.04
"2016-05-28 18:30:00",237484,0,0,14.31,83.7,28.75629,0,861.2659,0,8.8,3.015,323,16.31,15.05,3.894899,0.134,46.24,53.05,32.35,34.04
"2016-05-28 18:40:00",237485,0.181,344.8,13.95,84.4,15.89135,0,861.2639,0,-30.47,3.4,220,16.35,15.04,2.027058,0.125,46.29,53.05,32.36,34.04
"2016-05-28 18:50:00",237486,0.018,53.45,13.6,86.9,4.648793,0,861.2161,0,-1.069,3.115,241,16.36,15.06,0.2046022,0.03,46.24,53.05,32.35,34.04
"2016-05-28 19:00:00",237487,0.181,194.6,13.04,95.8,0.03143797,0,861.2674,0,1.203,3.096,280,16.35,15.1,0,0,46.24,53.11,32.35,34.06
"2016-05-28 19:10:00",237488,0.032,141.8,12.6,99.7,0,0,861.3292,0,-1.532,3.126,228,16.32,15.09,0,0,46.24,53.05,32.35,34.04
"2016-05-28 19:20:00",237489,0.212,181.7,12,100,0,0,861.3337,0,-46.57,3.569,400,16.3,15.1,0,0,46.24,53.05,32.35,34.04
"2016-05-28 19:30:00",237490,0.159,193.3,11.66,100,0,0,861.3537,0,-0.591,3.121,247,16.32,15.09,0,0,46.24,53.05,32.35,34.04
"2016-05-28 19:40:00",237491,0.452,186.9,11.32,100,0,0,861.494,0,-0.368,3.12,249,16.35,15.12,0,0,46.24,53.05,32.35,34.04
"2016-05-28 19:50:00",237492,0.377,185.2,11.23,100,0,0,861.5933,0,-32.59,3.436,230,16.26,15.14,0,0,46.24,53.05,32.35,34.04
"2016-05-28 20:00:00",237493,0.479,183.5,10.98,100,0,0,861.6461,0,-0.888,3.127,258,16.23,15.13,0,0,46.19,53.05,32.34,34.04
"2016-05-28 20:10:00",237494,0.361,183.8,10.87,100,0,0,861.7598,0,-2.699,3.145,204,16.27,15.13,0.003789541,0,46.19,53.11,32.34,34.06
"2016-05-28 20:20:00",237495,0.473,183.5,10.85,100,0,0,861.6692,0,-3.388,3.152,202,16.22,15.14,0.2349515,0,46.19,53.11,32.34,34.06
"2016-05-28 20:30:00",237496,0.367,193.4,10.85,100,0,0,861.8398,0,-3.592,3.154,203,16.19,15.15,0.4357972,0,46.19,53.11,32.34,34.06
"2016-05-28 20:40:00",237497,0.508,189,10.66,100,0,0,861.8461,0,-36.98,3.483,404,16.17,15.15,0.189477,0,46.24,53.11,32.35,34.06
"2016-05-28 20:50:00",237498,0.285,189.1,10.62,100,0,0,861.8461,0,-1.606,3.135,231,16.07,15.15,0.3789541,0,46.24,53.05,32.35,34.04
"2016-05-28 21:00:00",237499,0.267,188.7,10.67,100,0,0,861.8461,0,-2.27,3.142,207,16.1,15.15,0.4547449,0,46.24,53.11,32.35,34.06
"2016-05-28 21:10:00",237500,0.27,195.9,10.71,100,0,0,861.8714,0,-32.93,3.442,254,16.03,15.15,0.5646416,0,46.19,53.05,32.34,34.04
"2016-05-28 21:20:00",237501,0.015,203.2,10.78,100,0,0,862.0273,0,-32.19,3.436,207,16,15.15,0.651801,0,46.24,53.05,32.35,34.04
"2016-05-28 21:30:00",237502,0.368,191.2,10.49,100,0,0,862.2631,0,-32.08,3.435,233,15.93,15.15,0.3827437,0,46.24,53.05,32.35,34.04
"2016-05-28 21:40:00",237503,0.156,187.1,10.66,100,0,0,862.3432,0,-31.96,3.432,253,15.92,15.15,0.6783278,0,46.24,53.11,32.35,34.06
"2016-05-28 21:50:00",237504,0.03,234.4,11.16,100,0,0,862.3453,0,-32.52,3.434,210,15.92,15.15,1.098967,0,46.24,53.11,32.35,34.06
"2016-05-28 22:00:00",237505,0.001,311.5,11.08,100,0,0,862.2021,0,-32.17,3.434,231,15.81,15.15,0.4699031,0,46.19,53.11,32.34,34.06
"2016-05-28 22:10:00",237506,0,0,10.75,100,0,0,862.2716,0,-32.54,3.439,284,15.83,15.15,0.4547449,0,46.24,53.11,32.35,34.06
"2016-05-28 22:20:00",237507,0.091,4.624,10.86,100,0,0,862.28,0,-32.57,3.434,226,15.75,15.15,0.9473853,0,46.19,53.11,32.34,34.06
"2016-05-28 22:30:00",237508,0.364,26.58,11.92,91,0,0,862.3516,0,-31.85,3.428,209,15.75,15.15,1.739399,0,46.24,53.11,32.35,34.06
"2016-05-28 22:40:00",237509,0.257,187.2,10.57,98.8,0,0,862.3516,0,-33.4,3.449,208,15.69,15.15,0.08715944,0,46.19,53.11,32.34,34.06
"2016-05-28 22:50:00",237510,0.077,189.3,10.3,100,0,0,862.3516,0,-32.33,3.439,410,15.67,15.15,0.4585344,0,46.29,53.11,32.36,34.06
"2016-05-28 23:00:00",237511,0.22,170.6,10.01,100,0,0,862.3516,0,-32.82,3.447,223,15.63,15.15,0.2766365,0,46.24,53.11,32.35,34.06
"2016-05-28 23:10:00",237512,0.171,182.8,9.76,100,0,0,862.3516,0,-30.92,3.428,208,15.58,15.15,0.5229567,0,46.24,53.05,32.35,34.04
"2016-05-28 23:20:00",237513,0.24,174.4,9.61,100,0,0,862.3516,0,-30.91,3.43,278,15.59,15.16,0.4547453,0,46.19,53.05,32.34,34.04
"2016-05-28 23:30:00",237514,0.296,181.3,9.52,100,0,0,862.2231,0,0.85,3.118,335,15.52,15.19,0.4547554,0,46.19,53.11,32.34,34.06
"2016-05-28 23:40:00",237515,0.526,178.2,9.19,100,0,0,862.2189,0,-2.97,3.158,213,15.51,15.2,0.1136904,0,46.19,53.11,32.34,34.06
"2016-05-28 23:50:00",237516,0.498,188.3,9.03,100,0,0,862.2568,0,-33.21,3.455,233,15.42,15.23,0.3789629,0,46.24,53.05,32.35,34.04
